Lexington Weather

Lexington, Massachusetts, USA

70°F
8/17/2022 6:32pm 
  • Lexington Conditions: Overcast
  • Temperature: 70.0°F / 21.1°C 
  • Dew Point: 59.4°FIncreased 0.9°Fsince last hour.
  • Relative Humidity: 69%Increased 2.0% since last hour.
  • Wind: Calm, 10-min avg: Calm, gust: None
  • Barometer: 29.86 in Steady
  • Visibility: 10 miles
  • Rain Today: 0.00 in
  •   

Regional Weather Roundup
for Boston, MA

        
000
ASUS41 KBOX 122210
RWRBOX

REGIONAL WEATHER ROUNDUP
NATIONAL WEATHER SERVICE BOSTON/NORTON MA
600 PM EDT FRI AUG 12 2022

NOTE:  "FAIR" INDICATES FEW OR NO CLOUDS BELOW 12,000 FEET WITH NO 
SIGNIFICANT WEATHER AND/OR OBSTRUCTIONS TO VISIBILITY.

MAZALL-122300-
EASTERN MASSACHUSETTS
  
CITY           SKY/WX    TMP DP  RH WIND       PRES   REMARKS
BOSTON         MOSUNNY   71  57  61 E8        29.98R                  
BEVERLY        MOSUNNY   79  50  36 NW14      29.97R                  
LAWRENCE       SUNNY     77  50  38 N13       30.00R                  
BEDFORD        SUNNY     79  50  36 N10       29.97R                  
BLUE HILL      NOT AVBL                                               
NORWOOD        CLOUDY    81  54  39 NE10      29.95R                  
MARSHFIELD     MOSUNNY   72  59  64 E7        29.97R                  
PLYMOUTH       MOSUNNY   75  60  59 NE6       29.97S                  
TAUNTON          N/A    N/A N/A N/A MISG      29.96R                  
NEW BEDFORD    MOSUNNY   78  61  55 S5        29.96R                  
$$

MAZALL-122300-
CAPE COD AND THE ISLANDS
  
CITY           SKY/WX    TMP DP  RH WIND       PRES   REMARKS
FALMOUTH       MOSUNNY   73  61  64 E12       29.97R                  
HYANNIS        PTSUNNY   74  62  66 NE7       29.95S                  
CHATHAM        PTSUNNY   73  64  73 NE7       29.97S                  
NANTUCKET      PTSUNNY   73  67  81 NE5       29.96S                  
MARTHAS VNYRD  MOSUNNY   75  63  66 NE7       29.96S                  
$$
 
MAZALL-122300-
CENTRAL AND WESTERN MASSACHUSETTS
  
CITY           SKY/WX    TMP DP  RH WIND       PRES   REMARKS
WORCESTER      MOSUNNY   74  41  30 N10       30.02R                  
FITCHBURG      MOSUNNY   76  45  33 NW12      30.00R                  
ORANGE         MOSUNNY   76  45  33 N12G20    30.03R                  
SPRINGFIELD    PTSUNNY   78  44  29 N10       29.97R                  
WESTFIELD      MOSUNNY   79  41  25 NW13      30.00R                  
NORTH ADAMS    SUNNY     74  44  34 VRB5      30.03S                  
PITTSFIELD     MOSUNNY   72  43  35 N7        30.03S                  
$$
 
RIZALL-122300-
RHODE ISLAND
  
CITY           SKY/WX    TMP DP  RH WIND       PRES   REMARKS
PROVIDENCE     PTSUNNY   79  64  60 S13       29.95R                  
NEWPORT        MOSUNNY   74  65  73 S13       29.96S                  
BLOCK ISLAND   MOSUNNY   75  61  61 S9        29.97S                  
SMITHFIELD     SUNNY     81  48  31 NW10      29.98R                  
WESTERLY       MOSUNNY   77  60  55 S12       29.96R                  
$$
 
CTZALL-122300-
CONNECTICUT
  
CITY           SKY/WX    TMP DP  RH WIND       PRES   REMARKS
BRADLEY INTL   PTSUNNY   79  45  29 N9        29.99R                  
HARTFORD       MOSUNNY   82  43  25 N9        29.98R                  
BRIDGEPORT     MOSUNNY   81  38  21 N12       29.98R                  
DANBURY        MOSUNNY   81  43  26 N13G21    30.01R                  
GROTON         SUNNY     86  46  24 N10G20    29.95R                  
NEW HAVEN      MOSUNNY   83  44  25 NW9G16    29.98R                  
CHESTER        FAIR      81  43  26 N7        29.99R                  
MERIDEN        MOSUNNY   80  41  24 NW12      29.98R                  
WILLIMANTIC    PTSUNNY   80  49  33 NE9       29.98R                  
OXFORD         PTSUNNY   77  44  30 N13       30.02R                  
$$

MEZ002-015-021-024-NHZ003-005-008-011-012-014-VTZ005-008-122300-
NORTHERN NEW ENGLAND
  
CITY           SKY/WX    TMP DP  RH WIND       PRES   REMARKS
PORTLAND ME    PTSUNNY   75  51  43 N7        29.97R                  
BANGOR ME      PTSUNNY   75  53  46 NW14      29.97S                  
CONCORD NH     MOSUNNY   73  47  39 NW12G22   30.01S                  
MANCHESTER NH  PTSUNNY   75  48  38 N14G20    29.99S                  
NASHUA NH      MOSUNNY   75  51  43 N7G14     30.01R                  
PORTSMOUTH NH  PTSUNNY   77  48  35 W10       29.97R                  
JAFFREY NH     MOSUNNY   74  47  38 VRB5      30.04R                  
KEENE NH       PTSUNNY   75  48  38 NW10        N/A                   
BURLINGTON VT  PTSUNNY   70  52  52 N12       30.08R                  
MT. WASHINGTON DRZL/FOG  41  41 100 NW21        N/A  VSB 1/16WCI  32  
$$

NYZ052-076-122300-
EASTERN NEW YORK
  
CITY           SKY/WX    TMP DP  RH WIND       PRES   REMARKS
ALBANY         PTSUNNY   74  46  36 NW9       30.03R                  
NEW YORK CITY  PTSUNNY   83  44  25 VRB5      29.96R                  
$$
 
ANZALL-122300-
MARINE OBSERVATIONS
  
STATION/POSITION TIME  TEMP    WIND        PRES    VSBY  WAVE
                       AIR SEA DIR/SP/G                  HT/PER
                 (UTC) (F)     (DEG/KT/KT) (MB)    (MI)  (FT/S)
BOSTON BUOY      NOT AVBL
BUZZARDS BAY     NOT AVBL
NANTUCKET SOUND  NOT AVBL
MASS BAY-STELLWA NOT AVBL
ISLE OF SHOALS   NOT AVBL
S OF BLOCK IS    NOT AVBL
$$

......................KEY.........................
  SKY/WX - SKY CONDITION/PRESENT WEATHER
  TMP    - TEMPERATURE IN FAHRENHEIT
  DWPT   - DEWPOINT IN FAHRENHEIT
  RH     - RELATIVE HUMIDITY IN PERCENT
  WIND   - DIRECTION AND SPEED IN MPH
  PRES   - MEAN SEA LEVEL PRESSURE IN INCHES OF HG
  WCI    - WIND CHILL INDEX
  VSB    - VISIBILITY IN MILES
  HX     - HEAT INDEX
  TC     - TEMPERATURE IN CELSIUS
  VRB    - VARIABLE WIND DIRECTION
  N/A    - NOT AVAILABLE
  
      

Other recent Regional Weather Roundups

Wed Aug 17, 6:10pm

Wed Aug 17, 5:10pm

Wed Aug 17, 4:10pm

Wed Aug 17, 3:10pm

Wed Aug 17, 2:10pm

Wed Aug 17, 1:10pm

Wed Aug 17, 12:10pm

Wed Aug 17, 11:10am

Wed Aug 17, 10:10am

Wed Aug 17, 9:10am

Wed Aug 17, 8:10am

Wed Aug 17, 7:10am

Wed Aug 17, 6:10am

Wed Aug 17, 5:10am

Wed Aug 17, 4:10am

Wed Aug 17, 3:10am

Wed Aug 17, 2:10am

Wed Aug 17, 1:10am

Wed Aug 17, 12:10am

Tue Aug 16, 11:10pm

Tue Aug 16, 10:10pm

Tue Aug 16, 9:10pm

Tue Aug 16, 8:10pm

Tue Aug 16, 7:10pm

Tue Aug 16, 6:10pm

Tue Aug 16, 5:10pm

Tue Aug 16, 4:10pm

Tue Aug 16, 3:10pm

Tue Aug 16, 2:10pm

Tue Aug 16, 1:10pm

Tue Aug 16, 12:10pm

Tue Aug 16, 11:10am

Tue Aug 16, 10:10am

Tue Aug 16, 9:10am

Tue Aug 16, 8:10am

Tue Aug 16, 7:10am

Tue Aug 16, 6:10am

Tue Aug 16, 5:10am

Tue Aug 16, 4:10am

Tue Aug 16, 3:10am

Tue Aug 16, 2:10am

Tue Aug 16, 1:10am

Tue Aug 16, 12:10am

Mon Aug 15, 11:10pm

Mon Aug 15, 10:10pm

Mon Aug 15, 9:10pm

Mon Aug 15, 8:10pm

Mon Aug 15, 7:10pm

Mon Aug 15, 6:10pm

Mon Aug 15, 5:10pm

Mon Aug 15, 4:10pm

Mon Aug 15, 3:10pm

Mon Aug 15, 2:10pm

Mon Aug 15, 1:10pm

Mon Aug 15, 12:10pm

Mon Aug 15, 11:10am

Mon Aug 15, 10:10am

Mon Aug 15, 9:10am

Mon Aug 15, 8:10am

Mon Aug 15, 7:10am

Mon Aug 15, 6:10am

Mon Aug 15, 5:10am

Mon Aug 15, 4:10am

Mon Aug 15, 3:10am

Mon Aug 15, 2:10am

Mon Aug 15, 1:10am

Mon Aug 15, 12:10am

Sun Aug 14, 11:10pm

Sun Aug 14, 10:10pm

Sun Aug 14, 9:10pm

Sun Aug 14, 8:10pm

Sun Aug 14, 7:10pm

Sun Aug 14, 6:10pm

Sun Aug 14, 5:10pm

Sun Aug 14, 4:10pm

Sun Aug 14, 3:10pm

Sun Aug 14, 2:10pm

Sun Aug 14, 1:10pm

Sun Aug 14, 12:10pm

Sun Aug 14, 11:10am

Sun Aug 14, 10:10am

Sun Aug 14, 9:10am

Sun Aug 14, 8:10am

Sun Aug 14, 7:10am

Sun Aug 14, 6:10am

Sun Aug 14, 5:10am

Sun Aug 14, 4:10am

Sun Aug 14, 3:10am

Sun Aug 14, 2:10am

Sun Aug 14, 1:10am

Sun Aug 14, 12:10am

Sat Aug 13, 11:10pm

Sat Aug 13, 10:10pm

Sat Aug 13, 9:10pm

Sat Aug 13, 8:10pm

Sat Aug 13, 7:10pm

Sat Aug 13, 6:10pm

Sat Aug 13, 5:10pm

Sat Aug 13, 4:10pm

Sat Aug 13, 3:10pm

Sat Aug 13, 2:10pm

Sat Aug 13, 1:10pm

Sat Aug 13, 12:10pm

Sat Aug 13, 11:10am

Sat Aug 13, 10:10am

Sat Aug 13, 9:10am

Sat Aug 13, 8:10am

Sat Aug 13, 7:10am

Sat Aug 13, 6:10am

Sat Aug 13, 5:10am

Sat Aug 13, 4:10am

Sat Aug 13, 3:10am

Sat Aug 13, 2:10am

Sat Aug 13, 1:10am

Sat Aug 13, 12:10am

Fri Aug 12, 11:10pm

Fri Aug 12, 10:10pm

Fri Aug 12, 9:10pm

Fri Aug 12, 8:10pm

Fri Aug 12, 7:10pm

Fri Aug 12, 5:10pm

Fri Aug 12, 4:10pm

Fri Aug 12, 3:10pm

Fri Aug 12, 2:10pm

Fri Aug 12, 1:10pm

Fri Aug 12, 12:10pm

Fri Aug 12, 11:10am

Fri Aug 12, 10:10am

Fri Aug 12, 9:10am

Fri Aug 12, 8:10am

Fri Aug 12, 7:10am

Fri Aug 12, 6:10am

Fri Aug 12, 5:10am

Fri Aug 12, 4:10am

Fri Aug 12, 3:10am

Fri Aug 12, 2:10am

Fri Aug 12, 1:10am

Fri Aug 12, 12:10am

Thu Aug 11, 11:10pm

Thu Aug 11, 10:10pm

Thu Aug 11, 9:10pm

Thu Aug 11, 8:10pm

Thu Aug 11, 7:10pm

Thu Aug 11, 6:10pm

Thu Aug 11, 5:10pm

Thu Aug 11, 4:10pm

Thu Aug 11, 3:10pm

Thu Aug 11, 2:10pm

Thu Aug 11, 1:10pm

Thu Aug 11, 12:10pm

Thu Aug 11, 11:10am

Thu Aug 11, 10:10am

Thu Aug 11, 9:10am

Thu Aug 11, 8:10am

Thu Aug 11, 7:10am

Thu Aug 11, 6:10am

Thu Aug 11, 5:10am

Thu Aug 11, 4:10am

Thu Aug 11, 3:10am

Thu Aug 11, 2:10am

Thu Aug 11, 1:10am

Thu Aug 11, 12:10am

Wed Aug 10, 11:10pm

Wed Aug 10, 10:10pm

Wed Aug 10, 9:10pm

Wed Aug 10, 8:10pm

Wed Aug 10, 7:10pm

Meta data:

ID: 6e4362f5-4263-4575-80c9-ad731825390c
Link: https://api.weather.gov/products/6e4362f5-4263-4575-80c9-ad731825390c